Погода Буй

Погода Буй : погода сейчас, прогноз погоды и архив. Всё, что Вы хотите узнать о погоде Буй!

Хотите узнать прогноз погоды Буй? Тогда Вам сюда: Погода Буй

Поиск расширенной информации на нашем сайте:

Другие новости

Новости СМИ2

Главная страница сайта

Новости сайта

03.07.2017

Напоминаем, что на нашем специализированном сайте Метеоцентр.Азия вы можете получить высокодетализированные автоматические прогнозы погоды по пунктам России, СНГ и мира в авиационном формате (включающие направление и скорость ветра, видимость, явления погоды, количество и форму облачности, нижнюю и верхнюю границу облачности).


Погода Буй - сегодня

Время (UTC), дата Ветер
(°,м/с) 
Видим.   Явления Облачность Т
(°С)
Тd
(°С)
f(%) Тe
(°С)
Pmin
(гПа)
dP
(гПа)
Po
(мм)
O2
(г/м3)
Тmin Tmax R s Состояние
почвы
06 14.02.18 тихо ()   10 км    10/6 300 м средняя 
[Frnb|As trans]
-19.1 -21.4 82 -19  1035  0.9  766  333           
09 14.02.18 тихо ()   15000 м  {снег}  ясно 
-11.2 -14.1 79 -11  1035.8  1.2  767  323           
12 14.02.18 080 (В) 18000 м  {снег}  ясно 
-7.6 -11.4 74 -7  1035.3  -0.3  766  319           
15 14.02.18 тихо ()   20000 м    ясно 
-11.5 -12.7 91 -12  1036  0.5  767  324    -7.3  0.0     
18 14.02.18 тихо ()   20000 м    ясно 
-17.5 -19.3 86 -18  1036.9  0.5  767  332           
21 14.02.18 тихо ()   20000 м    ясно 
-20.7 -23 82 -21  1037.8  0.7  768  336           
00 15.02.18 тихо ()   20000 м    ясно 
-22.7 -25.2 80 -23  1038.5  0.6  768  339           
03 15.02.18 тихо ()   20000 м    ясно 
-23.9 -26.2 81 -24  1039  0.4  768  341  -24.1      50  равномерный
сухой снег
100% 
06 15.02.18 тихо ()   12000 м    10/0 средняя 
[Ac trans]
-21.9 -24.4 80 -22  1039.4  0.5  769  338  -24.2         
09 15.02.18 тихо ()   10 км    ясно 
-13.6 -16.7 77 -14  1039.6  0.7  769  328           
12 15.02.18 080 (В) 20000 м    ясно 
-8.1 -12.4 71 -10  1038.9  -0.4  769  320           
15 15.02.18 тихо ()   20000 м    ясно 
-11.1 -13.4 83 -11  1038.5  -0.6  768  324    -7.9       
18 15.02.18 120 (ЮВ) 20000 м    ясно 
-13.7 -14.9 91 -14  1038.3  -0.3  768  327           
21 15.02.18 120 (ЮВ) 20000 м    ясно 
-15.6 -17 89 -16  1038.1  -0.3  768  330           
00 16.02.18 100 (В) 20000 м    8/8 600 м кучево-дожд. 
[Cb cap]
-14.7 -16.5 86 -15  1037.5  -0.5  768  328           
03 16.02.18 120 (ЮВ) 20000 м    10/10 300 м кучево-дожд. 
[Cb cap]
-13.2 -15.2 85 -15  1036.4  -1  767  326  -16.1      49  равномерный
сухой снег
100% 
06 16.02.18 100 (В) 15000 м  слаб. ливневой снег  10/10 300 м кучево-дожд. 
[Cb cap]
-12.1 -14.1 85 -12  1035.7  -0.6  766  324           
09 16.02.18 120 (ЮВ) 18000 м  слаб. ливневой снег  10/10 300 м кучево-дожд. 
[Cb cap]
-9.2 -11.5 83 -11  1034.7  -0.8  766  320           
18 16.02.18 150 (ЮВ) 20000 м  {ливн. осадки}  10/10 300 м кучево-дожд. 
[Cb cap]
-7.2 -9.5 84 -9  1032.5  -0.7  764  317           
21 16.02.18 140 (ЮВ) 10 км  слаб. ливневой снег  10/10 300 м кучево-дожд. 
[Cb cap]
-6.5 -8.4 86 -6  1031.7  -0.7  764  316           
03 17.02.18 140 (ЮВ) 20000 м  {ливн. осадки}  10/10 300 м кучево-дожд. 
[Cb cap]
-4.9 -6.2 91 -4  1031  -0.5  763  314  -7.5    0.3  49  равномерный
сухой снег
100% 
09 17.02.18 160 (Ю) 25000 м    9/6 600 м кучево-дожд., средняя 
[Cb cap|Ac As]
-3.8 -7.4 76 -5  1028.9  762  312           
12 17.02.18 150 (ЮВ) 50000 м    10/8 600 м кучево-дожд., средняя 
[Cb cap|Ac und]
-3.2 -7 75 -4  1027.3  -1.6  761  311           
18 17.02.18 160 (Ю) 20000 м    10/10 600 м кучево-дожд. 
[Cb cap]
-4.7 -6.7 86 -6  1026.1  -0.8  760  312           
21 17.02.18 160 (Ю) 10 км  слаб. ливневой снег  10/10 600 м кучево-дожд. 
[Cb cap]
-4.8 -7 85 -6  1025.8  -0.4  759  312           
Время (UTC), дата Ветер
(°,м/с) 
Видим.   Явления Облачность Т
(°С)
Тd
(°С)
f(%) Тe
(°С)
Pmin
(гПа)
dP
(гПа)
Po
(мм)
O2
(г/м3)
Тmin Tmax R s Состояние
почвы

Для получения пояснительной информации подведите курсор к названию столбца.

ПОГОДА Буй - архив

Всё, что Вы хотите узнать о погоде Буй - удобно и подробно!

Выберите нужную дату (начиная с 1 января 2015* года) и нажмите кнопку "Найти".
Будут отображены архивные сводки погоды по пункту Буй, начиная с указанной даты.


Отображать данные в формате CSV (для использования в таблицах Excel)


Внимание! Наш архив погоды предназначен исключительно для личного некоммерческого использования в познавательных целях. Если Вам необходимы официальные справки о состоянии погоды (для производственных, юридических, коммерческих и т.п. целей), обращайтесь в органы Росгидромета.

*Примечание: данная дата относится к архиву по метеостанциям СССР (Россия, СНГ, Балтия).
Архив по метеостанциям Зарубежной Европы и Азии (кроме Китая) хранится 10 дней, по другим регионам земного шара (Китай, Африка, Америка, Австралия, Океания) - 1 день.

Буй - район местоположения метеостанции


Название, широта, долгота, высота метеостанции:
Буй 58.5°ш. 41.5°д. 103 м над ур. моря [Российская Федерация]

Дополнительная информация

В oтличие oт бoльшинства пoгoдных сайтoв мы публикуем пoдрoбную метеoинфoрмацию в детальнoм прoфессиoнальнoм фoрмате.

Характеристики температуры и влажнoсти вoздуха измеряются на высoте 2 м в тени вдали oт зданий и деревьев.
Скoрoсть ветра измеряется на высoте 10 м (на урoвне рoста челoвека скoрoсть ветра ниже в 1.5-2 раза). Если метеoстанция нахoдится в гoрoде или в лесу, тo скoрoсть ветра занижена на 2-4 м/с пo сравнению с oткрытым местoм. Скoрoсть ветра над акватoриями крупных рек и oзёр, а также на вершинах хoлмoв на 2-5 м/с выше, чем в oбычных услoвиях.
Атмoсфернoе давление в разных тoчках местнoсти мoжет значительнo oтличаться oт давления на метеoстанции, в зависимoсти oт услoвий рельефа (при пoдъёме на 10 м давление пoнижается примернo на 1 мм рт.ст.).